COSMOS 1275 DEB, 42197

Orbit data source: Space-Track

COSMOS 1275 DEB, 42197 is space debris in LEO originally from a launch on Thu, 04 Jun 1981 UTC launched from the Plesetsk Missile And Space Complex (PKMTR). Debris objects in space refer to the collection of defunct objects orbiting the Earth. Examples of debris include non-operational satellites, rocket bodies, and fragments generated from explosions, collisions, or faulty payload assembly.

Loading next visibility...
Identifier
42197, 1981-053TM
Orbit
LEO
Last TLE update
2 days ago
Origin
Manufacturer
Unknown
Mission
Spacecraft
Bus & Motor
Unknown
Mass
Unknown
Launch date (UTC)
1981-06-04 (44 years ago)
Launch vehicle
Unknown
Launch site
Plesetsk Missile And Space Complex (PKMTR)
Object type
Payload
Rocket body
Debris
Shape & HBR
Unknown
Radar Cross Section
Small (<0.1 m²)

Expand to show TLE details & history

TLE from 2 days ago
0 COSMOS 1275 DEB
1 42197U 81053TM  25131.22728866  .00000930  00000-0  98811-3 0  9995
2 42197  82.8455 318.3969 0115119 281.9453  76.8814 13.70538571572194
Epoch: 2025-05-11T05:27Z
Definitive object data (Epoch: 2025-05-11T05:27:17.74Z)
Latitude
0.00005°
Longitude
7.31524°
Altitude
982.185 km
Speed
7.37 km/s
True Right ascension
21h 13m 35s
True Declination
0° 00' 00"
Sunlit
Object was in daylight at TLE epoch
Visualization TLE readout
Latitude
-28.49061°
Longitude
1.91003°
Altitude
959.11 km
Speed
7.396 km/s
Apparent Right ascension
23h 19m 00s
Apparent Declination
-42° 42' 20"
Sunlit
Object is in daylight
Visualization observer readout
Local Sidereal Time
14:47:09
Azimuth
111.663° ESE
Elevation
-51.437°
Doppler factor
1
Orbital elements
Apogee altitude
1,079.673 km
Perigee altitude
909.92 km
Semi-major axis
7,372.933 km
Eccentricity
0.0115119
Inclination
82.8455°
RAAN
318.3969°
Arg. of periapsis
281.9453°
True anomaly
78.17024°
Mean anomaly
76.8814°
Eccentric anomaly
77.52541°
Mean motion
3.42833 °/min
BSTAR
0.00098811
Orbital period
105.01 mins
Loading maneuver chart data...
Loading SW <> Apogee altitude chart data...
Loading historical data...
Loading historical data...
Loading historical data...
Loading historical data...
Loading historical data...
Loading historical data...
Loading historical data...

COSMOS 1275 DEB Visibility forecast

Observer location: undefined°, undefined°

Span
Click to sort rows by Start time (UTC) header in descending order
Start Az.
Max El. time (UTC)
Max El. Az.
Max El.
End time (UTC)
End Az.
9 mins2025-05-13 11:53:33.505Z134.838° SE2025-05-13 11:57:33.505Z91.497° ESE24.535°2025-05-13 12:02:33.505Z34.857° NE
11 mins2025-05-13 13:38:33.505Z214.71° SW2025-05-13 13:43:33.505Z283.92° WNW35.975°2025-05-13 13:49:33.505Z354.55° N
9 mins2025-05-13 22:53:33.505Z27.367° NE2025-05-13 22:57:33.505Z72.515° E22.656°2025-05-13 23:02:33.505Z123.057° SE
11 mins2025-05-14 00:38:33.505Z339.799° N2025-05-14 00:43:33.505Z271.542° WNW38.939°2025-05-14 00:49:33.505Z194.943° SSW
|